カタログに戻る

FENGYUN 1C DEB

運用中PO
NORAD 30632·DEBRIS·🇨🇳 China

打ち上げ May 10, 1999 から Taiyuan Satellite Launch Center

Loading…

次のパス (今後24時間)

TLE

最新Source: Space-Track

元期: Sep 14, 2026, 05:19 UTC

1 30632U 99025ANP 26257.22186575  .00010182  00000-0  15725-2 0  9991
2 30632  98.8364  55.4986 0013864  33.0796 139.6911 14.73479310 17345

AllMySatでFENGYUN 1C DEBをリアルタイム追跡

Download on the App Store